sat.trackr.live / text

‹ back to catalog

STARLINK-5548

NORAD 56334 · 2023-058T

PAYLOAD ACTIVE UNKNOWN

§ Identity

Operator
Country
US
Launch date
2023-04-27
Launch site
AFWTR
Launch vehicle
Mass (kg)
RCS (m²)

Purposes: comms

External: N2YO · Heavens-Above · Gunter

§ Orbital elements

Epoch: 2026-05-24T23:51:30.843072Z

Period
95.64 min
Inclination
97.4453°
Eccentricity
0.0002379
Mean motion
15.05657394 rev/d
Perigee alt
547.8 km
Apogee alt
551.1 km
Semi-major
6,927.6 km
B*
3.5179e-4
RAAN
146.1463°
Arg perigee
99.0742°
Mean anomaly
261.0755°
Rev number
16,968

§ Raw data

STARLINK-55481 56334U 23058T   26144.99410698  .00005022  00000+0  35179-3 0  99982 56334  97.4453 146.1463 0002379  99.0742 261.0755 15.05657394169683

JSON: /api/v1/satellites/56334 · /tle

For live sub-satellite position, see the globe view (requires WebGL).

§ Visibility from observer

Set your observer location to see the next 7 days of passes ≥ 10°. The values pass through the URL so the page stays shareable.

No JS? Fill the form by hand. The geolocation button needs JavaScript.